Flag for U.S.A. Weather past 2 weeks in Knoxville, Tennessee, U.S.A.

Now
89 °F

Passing clouds.


Feels Like: 90 °F
Forecast: 70 / 90 °F
Wind: 10 mph from East

Location: McGhee Tyson Airport

Current Time: Sep 3, 2015 at 3:20:51 PM

Latest Report: Sep 3, 2015 at 2:53 PM


Visibility: 10 mi

Pressure: 29.95 "Hg

Humidity: 41%

Dew point: 62 °F

Location of KnoxvilleLocation

Historic Weather in Knoxville — Graph

°F

Knoxville temperature yesterday

Maximum temperature yesterday: 91 °F (at 3:53 PM)
Minimum temperature yesterday: 69 °F (at 4:53 AM)
Average temperature yesterday: 79 °F

Past Weeks' High & Low Weather Summary

 TemperatureHumidityPressure
High91 °F (Sep 2, 3:53 PM)100% (Aug 23, 3:53 AM)30.18 "Hg (Aug 23, 3:53 AM)
Low60 °F (Aug 25, 5:53 AM)33% (Aug 25, 4:53 PM)29.86 "Hg (Aug 19, 5:53 PM)
Average75 °F73%30.03 "Hg
* Reported Aug 19 1:02 PM — Sep 3 1:53 PM, Knoxville, Weather by CustomWeather, © 2015

Note: Actual official high and low records may vary slightly from our data, if they occured in-between our weather recording intervals... More about our weather records

Advertising

Knoxville weather history for previous 24 hours

 ConditionsComfort  
Time TempWeatherWind HumidityBarometerVisibility
1:53 PM
Thu, Sep 3
89 °FPassing clouds.10 mph45%29.97 "Hg10 mi
12:53 PM88 °FPassing clouds.8 mph46%29.98 "Hg10 mi
11:53 AM85 °FPassing clouds.8 mph53%30.01 "Hg10 mi
10:53 AM81 °FBroken clouds.9 mph65%30.01 "Hg10 mi
9:53 AM77 °FPartly sunny.5 mph77%30.00 "Hg10 mi
8:53 AM74 °FMostly cloudy.No wind82%30.01 "Hg10 mi
7:53 AM71 °FOvercast.5 mph90%30.00 "Hg10 mi
6:53 AM71 °FMostly cloudy.5 mph96%29.98 "Hg10 mi
5:53 AM72 °FMostly cloudy.No wind91%29.98 "Hg10 mi
4:53 AM74 °FMostly cloudy.3 mph88%29.97 "Hg10 mi
3:53 AM74 °FHigh level clouds.7 mph88%29.96 "Hg10 mi
2:53 AM73 °FHigh level clouds.No wind94%29.96 "Hg10 mi
1:53 AM73 °FHigh level clouds.No wind94%29.98 "Hg10 mi
12:53 AM76 °FMostly cloudy.No wind80%30.00 "Hg10 mi
11:53 PM
Wed, Sep 2
77 °FMostly cloudy.No wind77%29.99 "Hg10 mi
10:53 PM78 °FPartly cloudy.No wind74%30.00 "Hg10 mi
9:53 PM78 °FPartly cloudy.3 mph74%30.00 "Hg10 mi
8:53 PM79 °FBroken clouds.No wind69%29.98 "Hg10 mi
7:53 PM84 °FBroken clouds.3 mph57%29.97 "Hg10 mi
6:53 PM88 °FBroken clouds.6 mph46%29.97 "Hg10 mi
5:53 PM90 °FBroken clouds.7 mph43%29.97 "Hg10 mi
3:53 PM91 °FBroken clouds.6 mph39%30.01 "Hg10 mi
Weather by CustomWeather, © 2015

See weather overviewHow to use our weather pages